Regional Weather Roundup
Issued by NWS

Home | Current Version | Previous Version | Graphics & Text | Print | Product List | Glossary On
Versions: 1 2 3 4 5 6 7 8 9 10 11 12 13 14 15 16 17 18 19 20 21 22 23 24 25 26 27 28 29 30 31 32 33 34 35 36 37 38 39 40 41 42 43 44 45 46 47 48 49 50
000
ASUS43 KMPX 291401
RWRMN
WEATHER ROUNDUP FOR MINNESOTA
NATIONAL WEATHER SERVICE TWIN CITIES/CHANHASSEN MN
900 AM CDT WED JUL 29 2015


NOTE: "FAIR" INDICATES FEW OR NO CLOUDS BELOW 12,000 FEET WITH NO
SIGNIFICANT WEATHER AND/OR OBSTRUCTIONS TO VISIBILITY. N/A MEANS
CURRENT SKY AND/OR WEATHER CONDITIONS ARE NOT AVAILABLE.

MNZ060>063-068>070-291500-
   Twin Cities Metro

CITY           SKY/WX    TMP DP  RH WIND       PRES   REMARKS
TWIN CITIES    SUNNY     70  50  49 SW17G28   29.94S
ST PAUL        SUNNY     71  52  50 W16G22    29.94S
CRYSTAL        SUNNY     73  50  44 W18G28    29.92R
BLAINE         SUNNY     72  52  49 W16G28    29.92S
LAKEVILLE      SUNNY     68  54  60 W13G21    29.97S
EDEN PRAIRIE   SUNNY     70  53  54 SW14G23   29.95S
SOUTH ST PAUL  SUNNY     71  50  46 W15G23    29.94S
LAKE ELMO      FAIR      70  54  56 W13G24    29.94S
$$
MNZ001>005-007-008-013>017-022>024-027-028-291500-
   Northwest Minnesota

CITY           SKY/WX    TMP DP  RH WIND       PRES   REMARKS
BEMIDJI        CLOUDY    63  53  71 W21G30    29.71R
HALLOCK        CLOUDY    66  57  72 W24G31    29.60R
ROSEAU         CLOUDY    64  57  77 W14G25    29.56R
WARROAD        CLOUDY    63  57  82 W17G26    29.54R
THIEF RVR FALL CLOUDY    63  55  77 W23G31    29.67R
CROOKSTON      CLOUDY    66  55  68 W22G29    29.71R
FOSSTON        CLOUDY    61  55  82 W22G28    29.73R
DETROIT LAKES  PTSUNNY   64  52  63 W23G33    29.82R
MOORHEAD       SUNNY     70  54  56 W22G28    29.82R
PARK RAPIDS    CLOUDY    65  52  62 W22G30    29.78R
MAHNOMEN       CLOUDY    63  54  72 W18G30    29.76R
$$
MNZ006-009>011-018-025>026-291500-
   North Central Minnesota

CITY           SKY/WX    TMP DP  RH WIND       PRES   REMARKS
BAUDETTE       CLOUDY    60  57  89 SW14G25   29.55S
FLAG ISLAND    CLOUDY    63  57  82 W22G30    29.47R
INTL FALLS     LGT RAIN  63  55  75 SW14G28   29.56R
WASKISH        CLOUDY    64  57  77 SW25G36   29.62R
BIG FORK       PTSUNNY   63  54  72 SW15G25   29.66R
LONGVILLE      CLOUDY    64  54  68 W8G20     29.75R
GRAND RAPIDS   CLOUDY    64  50  59 W10G21    29.72R
CRANE LAKE     CLOUDY    63  54  72 SW9       29.61S
ORR            CLOUDY    64  52  63 SW9G20    29.61R
COOK           CLOUDY    64  54  68 SW13G21   29.65S
WALKER         CLOUDY    63  51  67 W23G31    29.72R
$$
MNZ012-019>021-037-291500-
   Northeast Minnesota

CITY           SKY/WX    TMP DP  RH WIND       PRES   REMARKS
DULUTH         PTSUNNY   66  50  56 W25G33    29.74S
ELY            CLOUDY    63  52  67 SW20G26   29.65R
HIBBING        CLOUDY    64  51  62 SW9       29.70R
EVELETH        CLOUDY    63  50  63 SW14G22   29.70S
DULUTH HARBOR  CLOUDY    70  55  60 SW22G30   29.73S
TWO HARBORS    CLOUDY    70  55  60 SW18G24   29.69S
SILVER BAY     PTSUNNY   72  52  49 SW14G22   29.66F
GRAND MARAIS     N/A     56  51  84 W7        29.64F
G MARAIS ARPRT   N/A     63  48  59 S10G16    29.66F
$$
MNZ029>031-032-039>041-046>048-054>057-064-291500-
   West Central Minnesota

CITY           SKY/WX    TMP DP  RH WIND       PRES   REMARKS
FERGUS FALLS   SUNNY     66  52  59 W22G33    29.87R
WHEATON        SUNNY     68  52  56 W17G25    29.95R
MORRIS         SUNNY     70  54  56 W20G30    29.93R
ALEXANDRIA     SUNNY     68  51  54 W28G39    29.91R
ELBOW LAKE     FAIR      66  52  60 W23G31    29.90R
WADENA         CLOUDY    64  52  63 W21G30    29.82R
GLENWOOD       SUNNY     66  52  59 W20G33    29.92S
APPLETON       SUNNY     70  52  52 W16       29.96S
BENSON         SUNNY     70  52  52 W14G21    29.96R
ORTONVILLE     SUNNY     70  52  52 W10       29.97R
MADISON        SUNNY     70  52  52 W16G22    30.00R
WILLMAR        FAIR      70  54  56 W20G30    29.98R
$$
MNZ033>034-036-042>043-049>051-058-059-291500-
   Central Minnesota

CITY           SKY/WX    TMP DP  RH WIND       PRES   REMARKS
ST CLOUD       SUNNY     70  50  49 W22G35    29.88S
SAUK CENTRE    FAIR      67  51  57 W28G36    29.89S
PAYNESVILLE    SUNNY     67  49  53 SW22G31   29.94R
AITKIN         CLOUDY    66  52  59 SW14G29   29.77S
PINE RIVER     CLOUDY    64  52  63 SW9G23    29.82R
BRAINERD       CLOUDY    66  51  58 W16G25    29.81R
STAPLES        CLOUDY    64  50  59 W20G30    29.83R
LONG PRAIRIE   FAIR      66  50  55 SW25G33   29.88S
LITTLE FALLS   MOSUNNY   68  48  49 W16G23    29.86R
LITCHFIELD     SUNNY     70  54  56 W13G23    29.95F
BUFFALO        SUNNY     69  51  53 SW12G23   29.94S
MAPLE LAKE     SUNNY     70  54  56 SW12G23   29.93S
$$
MNZ037-044-045-052-053-291500-
   East Central Minnesota

CITY           SKY/WX    TMP DP  RH WIND       PRES   REMARKS
PRINCETON      SUNNY     72  54  53 SW14G22   29.88S
MORA           SUNNY     68  50  52 SW15G25   29.87R
CAMBRIDGE      SUNNY     72  54  53 SW14G26   29.86F
RUSH CITY      SUNNY     70  52  52 W16G22    29.86F
MOOSE LAKE     CLOUDY    64  52  63 SW12G20   29.77S
HINCKLEY       FAIR      68  52  56 SW21G32   29.84S
CLOQUET          N/A     64 N/A N/A SW14      29.76
MCGREGOR       CLOUDY    64  52  63 SW14G22   29.78S
$$
MNZ071>073-080-081-089-090-097-098-291500-
   Southwest Minnesota

CITY           SKY/WX    TMP DP  RH WIND       PRES   REMARKS
MONTEVIDEO     SUNNY     72  54  53 W12G20    30.00R
GRANITE FALLS  SUNNY     68  53  58 SW13G22   30.01S
CANBY          SUNNY     69  50  50 W17G24    30.04R
MARSHALL       SUNNY     70  48  46 W18G24    30.04R
REDWOOD FALLS  SUNNY     70  51  51 W17G24    30.00S
OLIVIA         SUNNY     68  50  52 W14G22    29.98F
PIPESTONE      SUNNY     64  54  68 W12       30.10R
WINDOM         SUNNY     70  54  56 W13       30.07S
WORTHINGTON    SUNNY     64  52  63 W10       30.12R
JACKSON        SUNNY     70  54  56 W13       30.10R
TRACY          SUNNY     68  54  60 W13G20    30.06R
SLAYTON        SUNNY     66  52  60 W13G21    30.10R
$$
MNZ065>067-074>077-082>085-091>093-291500-
   South Central Minnesota

CITY           SKY/WX    TMP DP  RH WIND       PRES   REMARKS
MANKATO        SUNNY     68  52  56 W10       30.02R
NEW ULM        SUNNY     70  52  52 W13       30.02R
ST JAMES       SUNNY     72  54  53 SW10G20   30.05S
FAIRMONT       SUNNY     68  52  56 W9        30.07R
GLENCOE        SUNNY     69  56  62 SW12G17   29.97S
FARIBAULT      SUNNY     70  55  60 W14G20    30.00S
OWATONNA       SUNNY     68  55  64 W12G17    30.01S
WASECA         SUNNY     64  55  72 SW9       30.04S
ALBERT LEA     SUNNY     70  54  56 W10G16    30.05R
$$
MNZ078>079-086>088-094>096-291500-
   Southeast Minnesota

CITY           SKY/WX    TMP DP  RH WIND       PRES   REMARKS
ROCHESTER      SUNNY     68  55  63 W16G22    30.03S
RED WING       SUNNY     73  52  46 W15G22    29.94S
STANTON        SUNNY     71  53  52 W12       29.97S
DODGE CENTER   SUNNY     66  54  63 W16       30.02S
WINONA         SUNNY     73  54  49 W10G21    29.98R
AUSTIN         SUNNY     72  52  49 W9G17     30.04S
PRESTON        SUNNY     69  52  55 W15G24    30.04R
$$
ABBREVIATIONS USED IN REMARKS
   TC - TEMPERATURES IN CELSIUS
  WCI - WIND CHILL INDEX
   HX - HEAT INDEX
  VSB - VISIBILITY
$$



USA.gov is the U.S. government's official web portal to all federal, state and local government web resources and services.